TimeCDT,TemperatureF,Dew PointF,Humidity,Sea Level PressureIn,VisibilityMPH,Wind Direction,Wind SpeedMPH,Gust SpeedMPH,PrecipitationIn,Events,Conditions,WindDirDegrees,DateUTC
12:51 AM,33.8,28.4,81,30.16,5.0,NNE,9.2,-,0.00,Snow,Light Snow,30,2013-10-28 05:51:00
12:53 AM,32.0,28.9,88,30.21,4.0,NNE,5.8,-,0.00,Snow,Light Snow,30,2013-10-28 05:53:00
1:23 AM,30.2,26.6,86,30.18,10.0,Variable,4.6,-,0.00,,Scattered Clouds,0,2013-10-28 06:23:00
1:33 AM,30.2,24.8,80,30.18,10.0,NE,9.2,16.1,0.00,,Mostly Cloudy,40,2013-10-28 06:33:00
1:53 AM,30.9,25.0,79,30.24,10.0,NE,11.5,18.4,0.00,,Mostly Cloudy,50,2013-10-28 06:53:00
2:09 AM,30.2,24.8,80,30.20,10.0,NE,10.4,18.4,N/A,,Scattered Clouds,40,2013-10-28 07:09:00
2:53 AM,30.0,23.0,75,30.26,10.0,NE,9.2,16.1,N/A,,Clear,40,2013-10-28 07:53:00
3:14 AM,30.2,24.8,80,30.23,10.0,NNE,8.1,-,N/A,,Mostly Cloudy,30,2013-10-28 08:14:00
3:53 AM,28.9,21.0,72,30.29,10.0,ENE,10.4,17.3,N/A,,Overcast,60,2013-10-28 08:53:00
4:10 AM,28.4,19.4,69,30.25,10.0,NE,4.6,-,N/A,,Scattered Clouds,40,2013-10-28 09:10:00
4:53 AM,27.0,19.9,75,30.33,10.0,NE,6.9,-,N/A,,Partly Cloudy,40,2013-10-28 09:53:00
5:53 AM,26.1,19.0,75,30.36,10.0,Variable,6.9,-,N/A,,Clear,0,2013-10-28 10:53:00
6:53 AM,25.0,19.9,81,30.39,10.0,NNE,4.6,-,N/A,,Clear,20,2013-10-28 11:53:00
7:53 AM,24.1,19.9,84,30.42,10.0,NNE,4.6,-,N/A,,Partly Cloudy,30,2013-10-28 12:53:00
8:53 AM,28.0,19.9,72,30.45,10.0,NE,5.8,-,N/A,,Clear,50,2013-10-28 13:53:00
9:53 AM,30.9,19.0,61,30.47,10.0,ENE,12.7,19.6,N/A,,Scattered Clouds,60,2013-10-28 14:53:00
10:53 AM,33.1,18.0,54,30.49,10.0,NE,9.2,17.3,N/A,,Scattered Clouds,40,2013-10-28 15:53:00
11:53 AM,35.1,18.0,50,30.50,10.0,East,3.5,16.1,N/A,,Mostly Cloudy,80,2013-10-28 16:53:00
12:53 PM,35.1,18.0,50,30.48,10.0,NNE,9.2,-,N/A,,Scattered Clouds,30,2013-10-28 17:53:00
1:53 PM,37.0,17.1,44,30.46,10.0,Variable,6.9,-,N/A,,Mostly Cloudy,0,2013-10-28 18:53:00
2:53 PM,37.9,16.0,41,30.46,10.0,Calm,Calm,-,N/A,,Clear,0,2013-10-28 19:53:00
3:53 PM,37.0,16.0,42,30.45,10.0,Calm,Calm,-,N/A,,Clear,0,2013-10-28 20:53:00
4:53 PM,37.0,17.1,44,30.45,10.0,NE,4.6,-,N/A,,Clear,50,2013-10-28 21:53:00
5:53 PM,33.1,17.1,52,30.47,10.0,Calm,Calm,-,N/A,,Clear,0,2013-10-28 22:53:00
6:53 PM,30.9,16.0,54,30.49,10.0,Calm,Calm,-,N/A,,Clear,0,2013-10-28 23:53:00
7:53 PM,28.9,18.0,64,30.49,10.0,NE,3.5,-,N/A,,Clear,40,2013-10-29 00:53:00
8:53 PM,27.0,18.0,69,30.49,10.0,ENE,4.6,-,N/A,,Clear,70,2013-10-29 01:53:00
9:53 PM,27.0,18.0,69,30.50,10.0,ENE,4.6,-,N/A,,Clear,60,2013-10-29 02:53:00
10:53 PM,24.1,17.1,75,30.51,10.0,East,3.5,-,N/A,,Clear,80,2013-10-29 03:53:00
11:53 PM,23.0,17.1,78,30.51,10.0,East,3.5,-,N/A,,Clear,80,2013-10-29 04:53:00